SCOUT A DEB, 3213

Orbit data source: Space-Track

SCOUT A DEB, 3213 is space debris in LEO originally from a launch on Sat, 02 Mar 1968 UTC launched from the Air Force Western Test Range (AFWTR). Debris objects in space refer to the collection of defunct objects orbiting the Earth. Examples of debris include non-operational satellites, rocket bodies, and fragments generated from explosions, collisions, or faulty payload assembly.

Loading next visibility...
Identifier
3213, 1968-012C
Orbit
LEO
Last TLE update
3 hours ago
Origin
Manufacturer
Unknown
Mission
Spacecraft
Bus & Motor
Unknown
Mass
Unknown
Launch date (UTC)
1968-03-02 (57 years ago)
Launch vehicle
Unknown
Launch site
Air Force Western Test Range (AFWTR)
Object type
Payload
Rocket body
Debris
Shape & HBR
Unknown
Radar Cross Section
Small (<0.1 m²)

Expand to show TLE details & history

TLE from 3 hours ago
0 SCOUT A DEB
1  3213U 68012C   25182.24951867  .00000324  00000-0  25739-3 0  9994
2  3213  90.2253 105.4122 0051302 353.4966 137.9811 13.88987771826739
Epoch: 2025-07-01T05:59Z
TLE epoch observation values (Epoch: 2025-07-01T05:59:18.413Z)
Latitude
48.22388°
Longitude
-83.71131°
Altitude
967.769 km
Speed
7.358 km/s
True Right ascension
19h 02m 39s
True Declination
48° 03' 28"
Sunlit
Object was in daylight at epoch
Visualization orbit readout
Latitude
-38.77834°
Longitude
96.22053°
Altitude
915.062 km
Speed
7.409 km/s
Apparent Right ascension
07h 36m 25s
Apparent Declination
-39° 29' 43"
Sunlit
Object is in daylight
Visualization observer readout
Local Sidereal Time
20:16:02
Azimuth
90.014° ESE
Elevation
-82.374°
Doppler factor
1
Orbital elements
Apogee altitude
966.661 km
Perigee altitude
891.685 km
Semi-major axis
7,307.31 km
Eccentricity
0.00513
Inclination
90.2253°
RAAN
105.4122°
Arg. of periapsis
353.4966°
True anomaly
Unknown
Mean anomaly
137.9811°
Eccentric anomaly
Unknown
Mean motion
3.47462 °/min
Orbital period
103.61 mins
BSTAR
0.00025739
Loading maneuver chart data...
Loading SW <> Apogee altitude chart data...
Loading historical data...
Loading historical data...
Loading historical data...
Loading historical data...
Loading historical data...
Loading historical data...
Loading historical data...

SCOUT A DEB Visibility forecast

Observer location: undefined°, undefined°

Span
Click to sort rows by Start time (UTC) header in descending order
Start Az.
Max El. time (UTC)
Max El. Az.
Max El.
End time (UTC)
End Az.
9 mins2025-07-01 19:18:53.024Z177.612° S2025-07-01 19:22:53.024Z332.256° NNW44.837°2025-07-01 19:27:53.024Z356.792° N
7 mins2025-07-02 06:10:53.024Z42.882° NE2025-07-02 06:13:53.024Z82.593° E23.476°2025-07-02 06:17:53.024Z130.895° SE
10 mins2025-07-02 07:52:53.024Z345.429° N2025-07-02 07:57:53.024Z269.366° W35.07°2025-07-02 08:02:53.024Z210.38° SW
|